Content
SEND FEEDBACK

Daily
Averages
Monthly
Summary
United States of America

ST. LOUIS - GATEWAY ARCH, MISSOURI


Home > North America > United States > Missouri
Elevation: 450 feet     Latitude: 38 37N     Longitude: 090 11W

WEATHER
 
SELECT A DAY
Number of Records: 186,410;   Date Range: 1/1/95 - 9/16/14
 
SHARE

PRINT THIS DATA

[ ← Previous Day ]
WEATHER ALMANAC - APRIL 5, 2013
[ Next Day → ]
[ °C ]   °F
Weather ElementAverageHighLow
Temperature51.5 °F66 °F (5:53 pm)34 °F (5:53 am)
Dewpoint31.5 °F36 °F (11:53 pm)27 °F (3:53 pm)
Humidity51.3 %85 % (2:53 am)24 % (3:53 pm)
Barometer30.10 in30.18 in (11:53 am)30.05 in (11:53 pm)
Wind Speed3.4 mph9.2 mph (11:53 pm)
Weather ElementAverage
Visibility10 mi
Wind DirectionESE (98.7 °)

Weather ElementTotal
Precipitation---
Heating Degree Days15 (Base 65)
Averaged from 23 records on April 5, 2013
WEATHER CONDITIONS BREAKOUT
WIND DIRECTION BREAKOUT
WEATHER BY HOUR - APRIL 5, 2013
[ °C ]   °F
Local TimeTemperatureDewpointHumidityBarometerVisibilityWind DirectionWind SpeedGust SpeedPrecipitationEventsConditions
1:53 AM35.1 °F28.9 °F78 %30.07 in10.0 miCalmClear
2:53 AM35.1 °F30.9 °F85 %30.07 in10.0 miCalmClear
3:53 AM35.1 °F30.0 °F82 %30.08 in10.0 miCalmClear
4:53 AM35.1 °F28.0 °F76 %30.10 in10.0 miCalmClear
5:53 AM34.0 °F28.0 °F79 %30.11 in10.0 miCalmClear
6:53 AM34.0 °F28.9 °F82 %30.13 in10.0 miCalmClear
7:53 AM41.0 °F33.1 °F73 %30.14 in10.0 miCalmClear
8:53 AM50.0 °F34.0 °F54 %30.15 in10.0 miNorth (10°)4.6 mphClear
9:53 AM52.0 °F35.1 °F53 %30.17 in10.0 miNNW (330°)5.8 mphClear
10:53 AM55.9 °F35.1 °F45 %30.17 in10.0 miNorth (360°)4.6 mphClear
11:53 AM59.0 °F34.0 °F39 %30.18 in10.0 miNW (310°)8.1 mphClear
12:53 PM61.0 °F30.0 °F31 %30.15 in10.0 miVariable3.5 mphClear
1:53 PM64.0 °F28.9 °F27 %30.13 in10.0 miVariable3.5 mphClear
2:53 PM64.9 °F28.9 °F26 %30.11 in10.0 miNNW (340°)4.6 mphClear
3:53 PM64.9 °F27.0 °F24 %30.08 in10.0 miCalmClear
4:53 PM64.9 °F27.0 °F24 %30.07 in10.0 miWest (260°)3.5 mphClear
5:53 PM66.0 °F28.0 °F24 %30.06 in10.0 miCalmClear
6:53 PM62.1 °F33.1 °F34 %30.06 in10.0 miNE (50°)5.8 mphClear
7:53 PM55.9 °F35.1 °F45 %30.07 in10.0 miEast (100°)6.9 mphClear
8:53 PM55.0 °F35.1 °F47 %30.08 in10.0 miESE (110°)5.8 mphClear
9:53 PM53.1 °F35.1 °F50 %30.07 in10.0 miSE (130°)6.9 mphClear
10:53 PM53.1 °F35.1 °F50 %30.06 in10.0 miSE (130°)5.8 mphClear
11:53 PM53.1 °F36.0 °F52 %30.05 in10.0 miSE (140°)9.2 mphClear
Hourly data recorded from KCPS, located miles away from St. Louis - Gateway Arch, Missouri







STORIES FROM OUR PARTNERS